Torna al catalogo

HEALTHSAT 1

AttivoScienzaSSO
NORAD 22827·PAYLOAD·🇺🇸 United States

Lanciato Sep 26, 1993 da Guiana Space Centre

Loading…

Prossimi Passaggi (prossime 24 ore)

TLE

AggiornatoSource: Space-Track

Epoca: Sep 14, 2026, 10:37 UTC

1 22827U 93061E   26257.44268157  .00000106  00000-0  55220-4 0  9994
2 22827  98.6327 325.5520 0009846 121.1170 251.7480 14.32574824720871

Traccia HEALTHSAT 1 in tempo reale con AllMySat

Download on the App Store